Location: Acton
(51.4942°N, 0.2232°W)
Time: 04:44:11
(UTC+00:00)

Meteor 1-12 Rocket - Pass Details

Date: 18 September 2020
Orbit: 854 x 927 km, 81.2° (Epoch: 20 October)

Event Time Altitude Azimuth Distance (km) Brightness Sun altitude
Rises 19:51:06 0° 193° (SSW) 3,536 7.3 -16.4°
Reaches altitude 10° 19:53:35 10° 194° (SSW) 2,590 6.6 -16.8°
Maximum altitude 19:59:30 83° 283° (WNW) 911 4.4 -17.6°
Drops below altitude 10° 20:05:21 10° 12° (NNE) 2,558 6.9 -18.4°
Sets 20:07:47 0° 13° (NNE) 3,490 7.6 -18.8°
